Markham, Ontario

10:11 AM EDT on October 23, 2017 (GMT -0400)
Markham

Weather History for CYKZ - November, 2011

Change the Weather History Date:

Thursday, November 3, 2011

  Actual Average Record
Temperature  
Mean Temperature 46 °F -  
Max Temperature 51 °F 47 °F 70 °F (2015)
Min Temperature 39 °F 33 °F 26 °F (2010)
Degree Days  
Heating Degree Days 19    
Moisture  
Dew Point 38 °F    
Average Humidity 70    
Maximum Humidity 81    
Minimum Humidity 53    
Precipitation  
Precipitation 0.01 in - - ()
Sea Level Pressure  
Sea Level Pressure 30.03 in    
Wind  
Wind Speed 5 mph ()    
Max Wind Speed 14 mph    
Max Gust Speed 22 mph    
Visibility 14.8 miles    
Events Rain    
Averages and records for this station are not official NWS values.
T = Trace of Precipitation, MM = Missing Value Source: Averaged Metar Reports

Daily Weather History Graph

Daily Weather History Graph

Search for Another Location

Airport or City:

Trip Planner

Search our weather history database for the weather conditions in past years. The results will help you decide how hot, cold, wet, or windy it might be!

Date:

Astronomy

Nov. 03, 2011 Rise Set
Actual Time 7:55 AM EDT 6:05 PM EDT
Civil Twilight 7:25 AM EDT 6:35 PM EDT
Nautical Twilight 6:51 AM EDT 7:09 PM EDT
Astronomical Twilight 6:18 AM EDT 7:43 PM EDT
Moon 2:40 PM EDT (11/3) 12:53 AM EDT (11/3)
Length of Visible Light 11h 09m
Length of Day
10h 09m
First Quarter, 60% of the Moon is Illuminated
Nov 3
First Quarter
Nov 10
Full
Nov 18
Last Quarter
Nov 25
New
Dec 2
First Quarter

Hourly Weather History & Observations

Time (EDT) Temp. Windchill Dew Point Humidity Pressure Visibility Wind Dir Wind Speed Gust Speed Precip Events Conditions
12:00 AM 53.6 °F - 41.0 °F 62% 30.04 in 15.0 mi SSW 5.8 mph - N/A   Mostly Cloudy
1:00 AM 51.8 °F - 39.2 °F 62% 30.03 in 15.0 mi SSW 3.5 mph - N/A   Mostly Cloudy
2:00 AM 50 °F - 38 °F 53% 30.02 in 15 mi SW 3.5 mph - -   Scattered Clouds
2:00 AM 50.0 °F - 37.4 °F 62% 30.02 in 15.0 mi SW 3.5 mph - N/A   Partly Cloudy
3:00 AM 48.2 °F - 37.4 °F 66% 30.00 in 15.0 mi SSW 4.6 mph - N/A   Partly Cloudy
4:00 AM 48.2 °F - 37.4 °F 66% 29.99 in 15.0 mi Calm Calm - N/A   Scattered Clouds
5:00 AM 50.0 °F - 37.4 °F 62% 29.99 in 15.0 mi WSW 4.6 mph - N/A   Mostly Cloudy
6:00 AM 48.2 °F - 37.4 °F 66% 29.99 in 15.0 mi West 3.5 mph - N/A   Scattered Clouds
7:00 AM 46.4 °F 45.2 °F 39.2 °F 76% 29.98 in 15.0 mi West 3.5 mph - N/A   Partly Cloudy
8:00 AM 46 °F - 38 °F 67% 29.99 in 15 mi West 2.3 mph - -   Scattered Clouds
8:00 AM 46.4 °F - 39.2 °F 76% 29.99 in 15.0 mi WSW 2.3 mph - N/A   Mostly Cloudy
9:00 AM 50.0 °F - 41.0 °F 71% 30.00 in 15.0 mi NW 6.9 mph - N/A   Mostly Cloudy
9:44 AM - - - N/A% - 10.0 mi NNW 10.4 mph - N/A   Mostly Cloudy
1:00 PM 50.0 °F - 41.0 °F 71% 30.04 in 15.0 mi NNW 12.7 mph 19.6 mph N/A   Overcast
2:00 PM 47 °F - 40 °F 68% 30.04 in 15 mi North 13.8 mph - -   Overcast
2:00 PM 46.4 °F 41.5 °F 39.2 °F 76% 30.04 in 15.0 mi North 10.4 mph 21.9 mph N/A   Overcast
3:00 PM 46.4 °F 41.5 °F 39.2 °F 76% 30.03 in 15.0 mi North 10.4 mph - N/A   Mostly Cloudy
4:00 PM 46.4 °F 41.1 °F 39.2 °F 76% 30.03 in 15.0 mi North 11.5 mph - N/A Rain Light Rain
5:00 PM 46.4 °F 41.9 °F 39.2 °F 76% 30.04 in 15.0 mi North 9.2 mph - N/A   Overcast
7:00 PM 44.6 °F 39.2 °F 37.4 °F 76% 30.06 in 15.0 mi North 10.4 mph - N/A   Mostly Cloudy
8:00 PM 43 °F - 35 °F 65% 30.09 in 15 mi NNW 4.6 mph - -   Partly Cloudy
9:00 PM 41.0 °F 38.0 °F 33.8 °F 76% 30.11 in 15.0 mi North 4.6 mph - N/A   Mostly Cloudy
10:00 PM 41.0 °F 38.0 °F 33.8 °F 76% 30.12 in 15.0 mi North 4.6 mph - N/A   Mostly Cloudy
11:00 PM 39.2 °F 35.9 °F 33.8 °F 81% 30.14 in 15.0 mi North 4.6 mph - N/A   Mostly Cloudy